Weather History for KSUX - November, 2013

Change the Weather History Date:

Friday, November 8, 2013

  Actual Average Record
Temperature  
Mean Temperature 42 °F 40 °F  
Max Temperature 60 °F 51 °F 82 °F (2006)
Min Temperature 24 °F 29 °F 1 °F (1991)
Degree Days  
Heating Degree Days 23 25  
Month to date heating degree days 191 184  
Since 1 July heating degree days 716 784  
Cooling Degree Days 0 0  
Month to date cooling degree days 0 0  
Year to date cooling degree days 960 869  
Moisture  
Dew Point 32 °F    
Average Humidity 64    
Maximum Humidity 85    
Minimum Humidity 43    
Precipitation  
Precipitation 0.00 in 0.04 in 0.85 in (1977)
Month to date precipitation 0.96 0.36  
Year to date precipitation 26.42 25.99  
Snow  
Snow 0.00 in 0.10 in 3.80 in (1943)
Month to date snowfall 0.5 0.7  
Since 1 July snowfall 0.5 1.7  
Since 1 September snowfall 0.5 1.7  
Snow Depth 0.00 in    
Sea Level Pressure  
Sea Level Pressure 29.91 in    
Wind  
Wind Speed 13 mph (South)    
Max Wind Speed 29 mph    
Max Gust Speed 36 mph    
Visibility 10 miles    
Events      
T = Trace of Precipitation, MM = Missing Value Source: NWS Daily Summary

Daily Weather History Graph

Daily Weather History Graph

Search for Another Location

Airport or City:

Trip Planner

Search our weather history database for the weather conditions in past years. The results will help you decide how hot, cold, wet, or windy it might be!

Date:

Astronomy

Nov. 08, 2013 Rise Set
Actual Time 7:07 AM CST 5:10 PM CST
Civil Twilight 6:38 AM CST 5:39 PM CST
Nautical Twilight 6:04 AM CST 6:13 PM CST
Astronomical Twilight 5:31 AM CST 6:46 PM CST
Moon 12:04 PM CST (11/8) 10:32 PM CST (11/8)
Length of Visible Light 11h 01m
Length of Day
10h 02m
Waxing Crescent, 33% of the Moon is Illuminated
Nov 8
Waxing Crescent
Nov 9
First Quarter
Nov 17
Full
Nov 25
Last Quarter
Dec 2
New

Hourly Weather History & Observations

Time (CST) Temp. Windchill Dew Point Humidity Pressure Visibility Wind Dir Wind Speed Gust Speed Precip Events Conditions
12:52 AM 26.1 °F 17.6 °F 21.9 °F 84% 30.25 in 10.0 mi ESE 8.1 mph - N/A   Clear
1:52 AM 28.0 °F 19.3 °F 23.0 °F 81% 30.22 in 10.0 mi ESE 9.2 mph - N/A   Clear
2:52 AM 28.9 °F 19.8 °F 25.0 °F 85% 30.19 in 10.0 mi ESE 10.4 mph - N/A   Clear
3:52 AM 30.0 °F 23.2 °F 26.1 °F 85% 30.16 in 10.0 mi ESE 6.9 mph - N/A   Clear
4:52 AM 33.1 °F 23.9 °F 27.0 °F 78% 30.12 in 10.0 mi SE 12.7 mph - N/A   Partly Cloudy
5:52 AM 35.1 °F 25.9 °F 27.0 °F 72% 30.08 in 10.0 mi SE 13.8 mph - N/A   Clear
6:52 AM 37.0 °F 28.5 °F 27.0 °F 67% 30.04 in 10.0 mi SE 13.8 mph - N/A   Clear
7:52 AM 36.0 °F 28.5 °F 28.0 °F 73% 29.99 in 10.0 mi SE 10.4 mph - N/A   Clear
8:52 AM 42.1 °F 33.3 °F 28.9 °F 60% 29.96 in 10.0 mi SSE 19.6 mph 28.8 mph N/A   Clear
9:52 AM 45.0 °F 36.6 °F 30.9 °F 58% 29.90 in 10.0 mi SSE 21.9 mph 31.1 mph N/A   Clear
10:52 AM 50.0 °F - 34.0 °F 54% 29.85 in 10.0 mi South 13.8 mph 28.8 mph N/A   Clear
11:52 AM 54.0 °F - 34.0 °F 47% 29.78 in 10.0 mi South 23.0 mph 31.1 mph N/A   Clear
12:52 PM 54.0 °F - 35.1 °F 49% 29.74 in 10.0 mi South 18.4 mph 27.6 mph N/A   Clear
1:52 PM 57.0 °F - 35.1 °F 44% 29.72 in 10.0 mi SSW 16.1 mph 26.5 mph N/A   Clear
2:52 PM 57.9 °F - 36.0 °F 44% 29.72 in 10.0 mi SSW 19.6 mph 26.5 mph N/A   Clear
3:52 PM 57.0 °F - 37.0 °F 47% 29.72 in 10.0 mi SW 10.4 mph - N/A   Partly Cloudy
4:52 PM 55.0 °F - 37.9 °F 53% 29.73 in 10.0 mi SW 15.0 mph - N/A   Clear
5:52 PM 54.0 °F - 37.9 °F 55% 29.77 in 10.0 mi WSW 9.2 mph - N/A   Clear
6:52 PM 52.0 °F - 37.9 °F 59% 29.80 in 10.0 mi West 8.1 mph - N/A   Clear
7:52 PM 48.0 °F - 37.9 °F 68% 29.82 in 10.0 mi West 8.1 mph - N/A   Clear
8:52 PM 48.0 °F - 37.9 °F 68% 29.84 in 10.0 mi West 11.5 mph - N/A   Clear
9:52 PM 45.0 °F - 36.0 °F 71% 29.86 in 10.0 mi North - - N/A   Clear
10:52 PM 45.0 °F 40.1 °F 35.1 °F 68% 29.86 in 10.0 mi West 9.2 mph - N/A   Clear
11:52 PM 41.0 °F 34.7 °F 34.0 °F 76% 29.88 in 10.0 mi WSW 10.4 mph - N/A   Clear